Location: *
(45.4590°N, 16.3650°E)
Time: 16:08:00
(UTC+00:00)

Cosmos 1300 - Pass Details

Date: 17 January 2020
Orbit: 511 x 515 km, 82.5° (Epoch: 18 February)

Event Time Altitude Azimuth Distance (km) Brightness Sun altitude
Rises 17:12:37 0° 349° (N) 2,640 6.3 -16.0°
Reaches altitude 10° 17:14:45 10° 348° (NNW) 1,748 5.4 -16.4°
Maximum altitude 17:18:35 77° 264° (W) 532 2.8 -17.0°
Drops below altitude 10° 17:22:22 10° 178° (S) 1,730 5.5 -17.7°
Sets 17:24:29 0° 176° (S) 2,610 6.4 -18.0°
